BRIO (43813 NORAD) Tracking and Keplerian Element Data

This shows tracking and keplerian element data for the satellite.

Feedback or suggestion? Click here.




ElementValue
Catalog43813
NameBRIO
Epoch Orbit33804
Epoch Day35.15268932
Epoch Year2025
RAAN111.8236
Inclination97.5347
Eccentricity0.0003697
Argument of Perigee196.7811
Mean Anonmoly163.3313
Mean Motion15.40514379
Decay Rate0.00073039
L11 43813U 18099BH 25035.15268932 .00073039 00000+0 17870-2 0 9993
L22 43813 97.5347 111.8236 0003697 196.7811 163.3313 15.40514379338043



Live tracking and technical data element details for BRIO (NORAD 43813). BRIO can be tracked NOW for your location showing map with azimuth and elevation plus other details from your city location.







IsCatalogInMostPopularTable: catalog: 43813, numindb: 371
Update: records affected: 1



GetName: 43813 BRIO

Hit Count: updated at: Thu, 16 Apr 2026 05:45:17 GMT